Rechercher aéroport 
image banner adimage banner adimage banner ad
image banner ad

49CA - Dcor Platform Habitat

Situé à Carpinteria, United States

ICAO - 49CA, IATA -

Données fournies par Airmate  

Information générale

Coordonnées: N34°17'12" W119°35'20"
Élévation : 90 feet MSL.
Variation magnétique : 14° East
Voir autres Aéroports à California

Données opérationnelles

Special qualification required
Heure actuelle UTC:
Heure actuelle locale:
Météo à : KSBA - Santa Barbara Muni ( 28 km )
METAR: KSBA 251553Z 00000KT 7SM OVC006 16/14 A3000 RMK AO2 SLP159 T01610144 $
TAF: KSBA 251158Z 2512/2612 VRB03KT P6SM OVC006 FM251700 14007KT P6SM BKN009 BKN120 FM252100 24008KT P6SM BKN120 FM260200 VRB03KT P6SM BKN120 FM260800 VRB03KT P6SM OVC007
Voir NOTAMs / SUP AIP / TFR affectant cet aéroport [VIEW]
Fréquences de communication: [VIEW]

Pistes:

Coordonnées de l'aéroport

Adresse: Carpinteria United States

Vue satellite de 49CA